User: anonymous   Login
Location: Ostrava
(49.8330°N, 18.2830°E)
Time: 22:25:10
(UTC+02:00)
Language:

Explorer 7 - Orbit

View from above orbital plane
View from above orbital plane
View from above satellite
View from above satellite

Ground track
Ground track

The orbit data is extracted from the following two-line orbital elements,

1 00022U 59009A   15213.89365460  .00001775  00000-0  16266-3 0  9994
2 00022 050.2850 169.2874 0146960 301.8890 056.7828 14.92381483958920
Epoch (UTC): 01 August 2015 21:26:51
Eccentricity: 0.0146960
inclination: 50.2850°
perigee height: 488 km
apogee height: 693 km
right ascension of ascending node: 169.2874°
argument of perigee: 301.8890°
revolutions per day: 14.92381483
mean anomaly at epoch: 56.7828°
orbit number at epoch: 95892

The dashed part of the orbit path shows where the satellite is in the earth's shadow,  

DLR